Regional Weather Roundup
Issued by NWS State College, PA

Home | Current Version | Previous Version | Graphics & Text | Print | Product List | Glossary On
Versions: 1 2 3 4 5 6 7 8 9 10 11 12 13 14 15 16 17 18 19 20 21 22 23 24 25 26 27 28 29 30 31 32 33 34 35 36 37 38 39 40 41 42 43 44 45 46 47 48 49 50
000
ASUS41 KCTP 270603
RWRCTP

REGIONAL WEATHER ROUNDUP
NATIONAL WEATHER SERVICE STATE COLLEGE PA
200 AM EDT FRI MAR 27 2015

Note: "fair" indicates few or no clouds below 12,000 feet with no
significant weather and/or obstructions to visibility.

* = STATION THAT DOES NOT REPORT PRECIPITATION /E.G. RAIN...SNOW...ETC/
    THUNDER OR FOG.

PAZ002>004-007>009-013>016-020>023-029>032-270700-
WESTERN PENNSYLVANIA

CITY           SKY/WX    TMP DP  RH WIND       PRES   REMARKS
ERIE           CLOUDY    34  30  85 SW6       29.86F
MEADVILLE      CLOUDY    33  30  88 W6        29.83S FOG
FRANKLIN*      CLOUDY    34  28  80 W6        29.84S
NEW CASTLE     FAIR      33  33 100 CALM      29.87R FOG
BEAVER COUNTY  NOT AVBL
BUTLER*        MOCLDY    34  30  86 W3        29.87S
PITTSBURGH INT CLOUDY    35  33  92 W5        29.86F
PITTSBURGH     CLOUDY    36  30  79 NW7       29.84F
INDIANA*       CLOUDY    36  34  93 NW7       29.87S
LATROBE        CLOUDY    36  36 100 CALM      29.86F
WASHINGTON CO* CLOUDY    37  30  75 NW5       29.88S
$$

PAZ004>006-010>012-017>019-024>028-033>037-041-042-045-046-049>053-270700-
CENTRAL PENNSYLVANIA

CITY           SKY/WX    TMP DP  RH WIND       PRES   REMARKS
BRADFORD       CLOUDY    31  27  85 NW7       29.78S
DUBOIS         CLOUDY    34  30  85 W6        29.79F
CLEARFIELD     CLOUDY    35  30  82 W6        29.82S
JOHNSTOWN      CLOUDY    32  31  96 NW14      29.77F FOG
ALTOONA        CLOUDY    38  33  82 NW10      29.80S
STATE COLLEGE  CLOUDY    38  31  76 NW5       29.81R
WILLIAMSPORT   CLOUDY    40  35  83 NW9       29.79S
SELINSGROVE    CLOUDY    43  36  76 NW5       29.80S
FT INDIANTOWN  CLOUDY    44  37  76 N9        29.76S
CAPITAL CITY   LGT RAIN  45  38  76 NW12      29.78R
HARRISBURG     LGT RAIN  45  38  76 NW10      29.77R
YORK           LGT RAIN  44  39  82 NW8       29.77R
$$

PAZ038>040-043-044-047-048-054-055-060>062-067>071-270700-
EASTERN PENNSYLVANIA

CITY           SKY/WX    TMP DP  RH WIND       PRES   REMARKS
SCRANTON       CLOUDY    38  32  79 NW15      29.77R
MOUNT POCONO   CLOUDY    34  32  92 NW14G21   29.70R FOG
ALLENTOWN      LGT RAIN  41  36  82 N10       29.73F
QUAKERTOWN*    CLOUDY    41  37  87 N9        29.73F
READING        LGT RAIN  43  38  82 NW9       29.75S
LANCASTER      LGT RAIN  43  39  86 NW9       29.76S
COATESVILLE    RAIN      43  41  93 N9G17     29.74R
POTTSTOWN      LGT RAIN  43  39  86 NW8       29.74S
BLUE BELL      CLOUDY    45  41  87 N5        29.70S
DOYLESTOWN     CLOUDY    42  39  89 NW7       29.70F
WILLOW GROVE   NOT AVBL
NORTH PHILA    CLOUDY    47  40  76 NW13      29.73R
PHILADELPHIA   CLOUDY    46  40  79 N13       29.72R
$$



USA.gov is the U.S. government's official web portal to all federal, state and local government web resources and services.